TimeEDT,TemperatureF,Dew PointF,Humidity,Sea Level PressureIn,VisibilityMPH,Wind Direction,Wind SpeedMPH,Gust SpeedMPH,PrecipitationIn,Events,Conditions,WindDirDegrees,DateUTC
12:53 AM,75.9,71.1,85,30.09,10.0,Calm,Calm,-,N/A,,Overcast,0,2013-07-09 04:53:00
1:53 AM,75.0,72.0,90,30.08,10.0,SSW,3.5,-,N/A,,Overcast,210,2013-07-09 05:53:00
2:53 AM,73.0,71.1,93,30.06,9.0,Calm,Calm,-,N/A,,Mostly Cloudy,0,2013-07-09 06:53:00
3:53 AM,73.9,71.1,91,30.07,10.0,Calm,Calm,-,N/A,,Overcast,0,2013-07-09 07:53:00
4:53 AM,73.0,71.1,93,30.07,10.0,Calm,Calm,-,N/A,,Overcast,0,2013-07-09 08:53:00
5:53 AM,73.0,71.1,93,30.07,10.0,Calm,Calm,-,0.00,,Overcast,0,2013-07-09 09:53:00
6:53 AM,75.0,71.1,87,30.08,10.0,SSW,5.8,-,N/A,,Overcast,200,2013-07-09 10:53:00
7:53 AM,77.0,71.1,82,30.08,10.0,SSW,5.8,-,N/A,,Scattered Clouds,210,2013-07-09 11:53:00
8:53 AM,80.1,71.1,74,30.08,10.0,SW,6.9,-,N/A,,Clear,220,2013-07-09 12:53:00
9:53 AM,82.0,71.1,69,30.07,10.0,WSW,12.7,-,N/A,,Scattered Clouds,240,2013-07-09 13:53:00
10:53 AM,84.0,72.0,67,30.06,10.0,WSW,13.8,-,N/A,,Scattered Clouds,240,2013-07-09 14:53:00
11:53 AM,87.1,73.9,65,30.06,10.0,SW,12.7,-,N/A,,Partly Cloudy,230,2013-07-09 15:53:00
12:53 PM,88.0,73.9,63,30.05,10.0,SW,10.4,-,N/A,,Scattered Clouds,220,2013-07-09 16:53:00
1:53 PM,89.1,73.0,59,30.05,10.0,WSW,11.5,-,N/A,,Scattered Clouds,240,2013-07-09 17:53:00
2:38 PM,87.8,73.4,62,30.05,10.0,SW,10.4,-,N/A,Thunderstorm,Thunderstorm,230,2013-07-09 18:38:00
2:53 PM,88.0,73.9,63,30.03,10.0,WSW,10.4,-,N/A,Thunderstorm,Thunderstorm,240,2013-07-09 18:53:00
3:27 PM,78.8,71.6,78,30.05,6.0,South,12.7,-,N/A,Rain-Thunderstorm,Thunderstorms and Rain,190,2013-07-09 19:27:00
3:51 PM,77.0,73.4,89,30.04,8.0,SW,3.5,-,N/A,Rain-Thunderstorm,Light Thunderstorms and Rain,230,2013-07-09 19:51:00
3:53 PM,77.0,73.9,90,30.02,8.0,SW,4.6,-,N/A,Rain-Thunderstorm,Light Thunderstorms and Rain,230,2013-07-09 19:53:00
4:21 PM,80.6,75.2,84,30.03,10.0,Calm,Calm,-,N/A,,Partly Cloudy,0,2013-07-09 20:21:00
4:53 PM,81.0,75.9,85,30.01,10.0,Calm,Calm,-,N/A,,Clear,0,2013-07-09 20:53:00
5:53 PM,82.0,77.0,85,30.02,9.0,NE,3.5,-,N/A,,Partly Cloudy,50,2013-07-09 21:53:00
6:53 PM,82.0,78.1,88,30.00,9.0,Calm,Calm,-,N/A,,Clear,0,2013-07-09 22:53:00
7:53 PM,82.0,78.1,88,30.00,8.0,South,4.6,-,N/A,,Partly Cloudy,190,2013-07-09 23:53:00
8:53 PM,80.1,75.9,87,30.00,8.0,Calm,Calm,-,N/A,,Clear,0,2013-07-10 00:53:00
9:53 PM,77.0,75.0,94,30.01,7.0,NNE,3.5,-,N/A,,Clear,30,2013-07-10 01:53:00
10:53 PM,75.9,75.0,97,30.01,5.0,Calm,Calm,-,N/A,,Clear,0,2013-07-10 02:53:00
11:53 PM,77.0,75.0,94,30.00,8.0,Calm,Calm,-,N/A,,Partly Cloudy,0,2013-07-10 03:53:00